EIN39C EIDW-EDDH

Flight info

Callsign EIN39C
Flight time 1h 36m
Altitude 35000
Route ENDEQ3J ENDEQ Q36 ALAVA Z195 MALUD UL975 WAL M16 DOLAS L603 LAMSO DCT GASTU DCT OSTOR/N0420F230 T904 RIBSO RIBSO3S
Aircraft A320/M-SDE3FGHIRWY/LB1

Departure

Time 2026-04-23 17:29
Airport Dublin Airport (EIDW)

Arrival

Time 2026-04-23 19:06
Airport Hamburg Helmut Schmidt Airport (EDDH)
Time Latitude Longitude Altitude Speed Heading
2026-04-23 17:15 53.42266 -6.23895 218 ft 0 kts 27°
2026-04-23 17:21 53.42263 -6.23897 215 ft 3 kts 27°
2026-04-23 17:21 53.42224 -6.23909 216 ft 2 kts 293°
2026-04-23 17:22 53.42230 -6.23932 218 ft 4 kts 295°
2026-04-23 17:22 53.42242 -6.23972 211 ft 0 kts 297°
2026-04-23 17:23 53.42260 -6.24063 211 ft 12 kts 268°
2026-04-23 17:24 53.42207 -6.24176 216 ft 12 kts 221°
2026-04-23 17:24 53.42158 -6.24275 211 ft 10 kts 256°
2026-04-23 17:24 53.42175 -6.24643 216 ft 19 kts 275°
2026-04-23 17:25 53.42207 -6.25227 219 ft 28 kts 275°
2026-04-23 17:25 53.42225 -6.25549 211 ft 28 kts 275°
2026-04-23 17:26 53.42261 -6.26191 211 ft 26 kts 275°
2026-04-23 17:26 53.42296 -6.26801 211 ft 28 kts 275°
2026-04-23 17:27 53.42337 -6.27489 213 ft 31 kts 274°
2026-04-23 17:27 53.42353 -6.27860 216 ft 30 kts 276°
2026-04-23 17:27 53.42372 -6.28180 211 ft 24 kts 275°
2026-04-23 17:27 53.42322 -6.28325 211 ft 13 kts 179°
2026-04-23 17:28 53.42231 -6.28246 213 ft 16 kts 152°
2026-04-23 17:28 53.42192 -6.28118 221 ft 16 kts 94°
2026-04-23 17:28 53.42165 -6.27596 209 ft 82 kts 95°
2026-04-23 17:28 53.42092 -6.26275 217 ft 141 kts 95°
2026-04-23 17:29 53.42028 -6.24557 694 ft 150 kts 94°
2026-04-23 17:29 53.41937 -6.22820 1416 ft 149 kts 98°
2026-04-23 17:29 53.41710 -6.19036 2203 ft 184 kts 99°
2026-04-23 17:30 53.41620 -6.17566 2368 ft 199 kts 99°
2026-04-23 17:30 53.41252 -6.11412 3337 ft 249 kts 98°
2026-04-23 17:30 53.41087 -6.08487 4132 ft 255 kts 98°
2026-04-23 17:31 53.40923 -6.05506 4963 ft 260 kts 98°
2026-04-23 17:31 53.40919 -6.02445 5789 ft 265 kts 90°
2026-04-23 17:31 53.41096 -5.99394 6651 ft 268 kts 86°
2026-04-23 17:31 53.41343 -5.96278 7435 ft 272 kts 86°
2026-04-23 17:32 53.41608 -5.93068 8164 ft 277 kts 86°
2026-04-23 17:32 53.41857 -5.89871 8870 ft 283 kts 87°
2026-04-23 17:32 53.42100 -5.86565 9594 ft 288 kts 88°
2026-04-23 17:32 53.42337 -5.83194 10314 ft 294 kts 88°
2026-04-23 17:33 53.42574 -5.79722 10722 ft 310 kts 88°
2026-04-23 17:33 53.42824 -5.75992 10920 ft 333 kts 88°
2026-04-23 17:33 53.43090 -5.72049 11360 ft 345 kts 87°
2026-04-23 17:33 53.43365 -5.68030 12006 ft 349 kts 86°
2026-04-23 17:34 53.43642 -5.63958 12690 ft 353 kts 86°
2026-04-23 17:34 53.43917 -5.59841 13376 ft 357 kts 86°
2026-04-23 17:34 53.44465 -5.51490 14677 ft 363 kts 87°
2026-04-23 17:35 53.44520 -5.47234 15076 ft 371 kts 94°
2026-04-23 17:35 53.44357 -5.39840 15637 ft 388 kts 95°
2026-04-23 17:35 53.44202 -5.33984 16379 ft 391 kts 95°
2026-04-23 17:36 53.44078 -5.29417 16991 ft 393 kts 95°
2026-04-23 17:36 53.43952 -5.24831 17595 ft 395 kts 94°
2026-04-23 17:36 53.43827 -5.20221 18201 ft 397 kts 94°
2026-04-23 17:36 53.43704 -5.15592 18771 ft 398 kts 94°
2026-04-23 17:37 53.43573 -5.10938 19252 ft 401 kts 94°
2026-04-23 17:37 53.43430 -5.06248 19729 ft 404 kts 94°
2026-04-23 17:37 53.43124 -4.96767 20602 ft 410 kts 95°
2026-04-23 17:38 53.42962 -4.91983 21041 ft 413 kts 95°
2026-04-23 17:38 53.42797 -4.87162 21450 ft 416 kts 94°
2026-04-23 17:38 53.42635 -4.82299 21868 ft 419 kts 95°
2026-04-23 17:38 53.42471 -4.77417 22267 ft 422 kts 94°
2026-04-23 17:39 53.42303 -4.72488 22635 ft 425 kts 94°
2026-04-23 17:39 53.42132 -4.67534 23008 ft 427 kts 94°
2026-04-23 17:39 53.41961 -4.62538 23356 ft 431 kts 94°
2026-04-23 17:39 53.41787 -4.57505 23703 ft 433 kts 94°
2026-04-23 17:40 53.41672 -4.54164 23947 ft 435 kts 94°
2026-04-23 17:40 53.41496 -4.49084 24243 ft 437 kts 93°
2026-04-23 17:40 53.41254 -4.42308 24645 ft 440 kts 94°
2026-04-23 17:40 53.41065 -4.37172 24944 ft 442 kts 94°
2026-04-23 17:41 53.40874 -4.32018 25239 ft 444 kts 94°
2026-04-23 17:41 53.40550 -4.23391 25715 ft 448 kts 94°
2026-04-23 17:41 53.40354 -4.18177 25989 ft 450 kts 94°
2026-04-23 17:42 53.39942 -4.07677 26548 ft 453 kts 93°
2026-04-23 17:42 53.39731 -4.02412 26828 ft 454 kts 93°
2026-04-23 17:42 53.39582 -3.97122 27075 ft 455 kts 88°
2026-04-23 17:43 53.39792 -3.91826 27314 ft 456 kts 83°
2026-04-23 17:43 53.40070 -3.86518 27558 ft 457 kts 84°
2026-04-23 17:43 53.40341 -3.81196 27781 ft 459 kts 84°
2026-04-23 17:43 53.40607 -3.75858 27994 ft 461 kts 84°
2026-04-23 17:44 53.40869 -3.70498 28216 ft 462 kts 84°
2026-04-23 17:44 53.41132 -3.65128 28458 ft 463 kts 84°
2026-04-23 17:44 53.41066 -3.54377 29093 ft 462 kts 92°
2026-04-23 17:45 53.40824 -3.49003 29423 ft 461 kts 92°
2026-04-23 17:45 53.40337 -3.38300 30028 ft 460 kts 92°
2026-04-23 17:45 53.40095 -3.32960 30332 ft 459 kts 92°
2026-04-23 17:46 53.39608 -3.22297 30863 ft 459 kts 92°
2026-04-23 17:46 53.39362 -3.16975 31110 ft 458 kts 92°
2026-04-23 17:46 53.39113 -3.11659 31358 ft 458 kts 92°
2026-04-23 17:47 53.38887 -3.06337 31621 ft 457 kts 91°
2026-04-23 17:47 53.38688 -3.01023 31886 ft 457 kts 90°
2026-04-23 17:47 53.38317 -2.90409 32391 ft 456 kts 90°
2026-04-23 17:48 53.38128 -2.85113 32634 ft 456 kts 90°
2026-04-23 17:48 53.37932 -2.79816 32909 ft 456 kts 90°
2026-04-23 17:48 53.37728 -2.74527 33155 ft 455 kts 91°
2026-04-23 17:48 53.37517 -2.69238 33398 ft 455 kts 91°
2026-04-23 17:49 53.37301 -2.63950 33644 ft 455 kts 91°
2026-04-23 17:49 53.37081 -2.58660 33900 ft 455 kts 91°
2026-04-23 17:49 53.36860 -2.53392 34193 ft 454 kts 91°
2026-04-23 17:49 53.36641 -2.48192 34478 ft 452 kts 91°
2026-04-23 17:50 53.36417 -2.42880 34712 ft 452 kts 91°
2026-04-23 17:50 53.35972 -2.32482 35153 ft 450 kts 91°
2026-04-23 17:50 53.35741 -2.27252 35348 ft 451 kts 93°
2026-04-23 17:51 53.34756 -2.16828 35436 ft 455 kts 97°
2026-04-23 17:52 53.33148 -2.01169 35439 ft 454 kts 98°
2026-04-23 17:52 53.31517 -1.85623 35442 ft 452 kts 99°
2026-04-23 17:53 53.29878 -1.70112 35446 ft 452 kts 98°
2026-04-23 17:54 53.28780 -1.59805 35453 ft 452 kts 98°
2026-04-23 17:54 53.27111 -1.44290 35469 ft 450 kts 102°
2026-04-23 17:55 53.25421 -1.28886 35474 ft 449 kts 102°
2026-04-23 17:56 53.24292 -1.18645 35481 ft 448 kts 102°
2026-04-23 17:56 53.22588 -1.03348 35475 ft 447 kts 102°
2026-04-23 17:57 53.21435 -0.93172 35478 ft 445 kts 104°
2026-04-23 17:58 53.19717 -0.78059 35482 ft 443 kts 104°
2026-04-23 17:58 53.18556 -0.67967 35481 ft 443 kts 104°
2026-04-23 17:59 53.17385 -0.57901 35478 ft 442 kts 104°
2026-04-23 17:59 53.16211 -0.47846 35475 ft 442 kts 104°
2026-04-23 18:00 53.15030 -0.37801 35468 ft 442 kts 104°
2026-04-23 18:00 53.13839 -0.27769 35467 ft 441 kts 104°
2026-04-23 18:01 53.12640 -0.17748 35468 ft 441 kts 104°
2026-04-23 18:01 53.11437 -0.07729 35466 ft 441 kts 104°
2026-04-23 18:02 53.10219 0.02282 35450 ft 441 kts 105°
2026-04-23 18:02 53.08999 0.12258 35468 ft 439 kts 106°
2026-04-23 18:03 53.07771 0.22201 35476 ft 439 kts 106°
2026-04-23 18:03 53.06537 0.32138 35476 ft 438 kts 106°
2026-04-23 18:04 53.05303 0.41991 35475 ft 438 kts 106°
2026-04-23 18:04 53.04059 0.51887 35460 ft 438 kts 106°
2026-04-23 18:05 53.02811 0.61781 35472 ft 437 kts 106°
2026-04-23 18:05 53.01551 0.71650 35476 ft 437 kts 106°
2026-04-23 18:06 53.00281 0.81501 35482 ft 436 kts 106°
2026-04-23 18:06 52.99005 0.91336 35483 ft 435 kts 106°
2026-04-23 18:07 52.97723 1.01156 35480 ft 435 kts 106°
2026-04-23 18:07 52.96549 1.10946 35471 ft 436 kts 105°
2026-04-23 18:08 52.95629 1.19230 35475 ft 436 kts 104°
2026-04-23 18:08 52.94334 1.30705 35483 ft 435 kts 105°
2026-04-23 18:09 52.93181 1.40553 35479 ft 435 kts 105°
2026-04-23 18:09 52.92007 1.50397 35479 ft 435 kts 105°
2026-04-23 18:10 52.90830 1.60241 35459 ft 436 kts 105°
2026-04-23 18:10 52.89645 1.70087 35459 ft 436 kts 105°
2026-04-23 18:11 52.88456 1.79929 35462 ft 436 kts 105°
2026-04-23 18:11 52.87260 1.89768 35462 ft 436 kts 105°
2026-04-23 18:12 52.86059 1.99541 35467 ft 436 kts 105°
2026-04-23 18:12 52.84841 2.09376 35447 ft 437 kts 105°
2026-04-23 18:13 52.83616 2.19223 35447 ft 437 kts 105°
2026-04-23 18:13 52.82377 2.29136 35449 ft 437 kts 106°
2026-04-23 18:14 52.81143 2.38912 35451 ft 437 kts 106°
2026-04-23 18:14 52.79886 2.48757 35449 ft 437 kts 106°
2026-04-23 18:15 52.78628 2.58589 35437 ft 438 kts 104°
2026-04-23 18:15 52.78424 2.63636 35439 ft 446 kts 89°
2026-04-23 18:15 52.79040 2.68700 35442 ft 453 kts 78°
2026-04-23 18:16 52.80857 2.78688 35441 ft 454 kts 77°
2026-04-23 18:16 52.82715 2.88681 35441 ft 455 kts 77°
2026-04-23 18:17 52.85464 3.03713 35419 ft 455 kts 78°
2026-04-23 18:17 52.87251 3.13687 35428 ft 455 kts 78°
2026-04-23 18:18 52.89044 3.23740 35438 ft 455 kts 78°
2026-04-23 18:18 52.90842 3.33795 35442 ft 455 kts 78°
2026-04-23 18:19 52.92630 3.43860 35449 ft 455 kts 78°
2026-04-23 18:19 52.94403 3.53936 35464 ft 455 kts 78°
2026-04-23 18:20 52.96168 3.64026 35461 ft 456 kts 77°
2026-04-23 18:20 52.97926 3.74125 35445 ft 456 kts 77°
2026-04-23 18:21 52.99680 3.84245 35453 ft 456 kts 77°
2026-04-23 18:21 53.01429 3.94385 35441 ft 457 kts 77°
2026-04-23 18:22 53.03160 4.04461 35444 ft 457 kts 78°
2026-04-23 18:22 53.04893 4.14618 35440 ft 457 kts 77°
2026-04-23 18:23 53.07487 4.29849 35438 ft 457 kts 77°
2026-04-23 18:24 53.10073 4.45103 35449 ft 457 kts 77°
2026-04-23 18:25 53.12637 4.60374 35441 ft 456 kts 78°
2026-04-23 18:25 53.14332 4.70558 35439 ft 456 kts 78°
2026-04-23 18:26 53.16023 4.80754 35442 ft 457 kts 78°
2026-04-23 18:26 53.17713 4.90966 35431 ft 457 kts 78°
2026-04-23 18:27 53.19391 5.01203 35440 ft 458 kts 78°
2026-04-23 18:27 53.21062 5.11447 35431 ft 458 kts 77°
2026-04-23 18:28 53.22713 5.21638 35425 ft 458 kts 78°
2026-04-23 18:28 53.24365 5.31908 35430 ft 458 kts 78°
2026-04-23 18:29 53.26006 5.42183 35425 ft 458 kts 78°
2026-04-23 18:29 53.27633 5.52474 35424 ft 458 kts 78°
2026-04-23 18:30 53.29267 5.62764 35409 ft 458 kts 78°
2026-04-23 18:30 53.30886 5.73063 35413 ft 458 kts 78°
2026-04-23 18:31 53.32490 5.83364 35415 ft 458 kts 78°
2026-04-23 18:31 53.34085 5.93682 35416 ft 458 kts 78°
2026-04-23 18:32 53.35407 6.02259 35413 ft 457 kts 78°
2026-04-23 18:32 53.36987 6.12572 35412 ft 457 kts 78°
2026-04-23 18:33 53.38814 6.24573 35403 ft 457 kts 78°
2026-04-23 18:33 53.40124 6.33225 35404 ft 457 kts 78°
2026-04-23 18:34 53.41682 6.43539 35402 ft 457 kts 78°
2026-04-23 18:34 53.43226 6.53869 35401 ft 457 kts 78°
2026-04-23 18:35 53.44757 6.64208 35133 ft 457 kts 78°
2026-04-23 18:35 53.45520 6.69382 34893 ft 457 kts 78°
2026-04-23 18:35 53.46280 6.74554 34654 ft 457 kts 78°
2026-04-23 18:35 53.47028 6.79669 34417 ft 457 kts 79°
2026-04-23 18:36 53.47779 6.84844 34131 ft 458 kts 77°
2026-04-23 18:36 53.48533 6.90045 33881 ft 458 kts 78°
2026-04-23 18:36 53.49291 6.95245 33604 ft 459 kts 78°
2026-04-23 18:36 53.50048 7.00450 33335 ft 459 kts 78°
2026-04-23 18:37 53.50803 7.05665 33065 ft 459 kts 79°
2026-04-23 18:37 53.51554 7.10881 32799 ft 460 kts 77°
2026-04-23 18:37 53.52304 7.16105 32543 ft 460 kts 79°
2026-04-23 18:37 53.53052 7.21347 32276 ft 462 kts 78°
2026-04-23 18:38 53.53799 7.26606 32016 ft 463 kts 78°
2026-04-23 18:38 53.54545 7.31877 31767 ft 463 kts 77°
2026-04-23 18:38 53.55288 7.37136 31513 ft 461 kts 77°
2026-04-23 18:38 53.56019 7.42315 31260 ft 448 kts 77°
2026-04-23 18:39 53.56728 7.47347 31001 ft 436 kts 77°
2026-04-23 18:39 53.57417 7.52249 30760 ft 425 kts 77°
2026-04-23 18:39 53.58085 7.57026 30519 ft 415 kts 78°
2026-04-23 18:39 53.58736 7.61699 30264 ft 405 kts 78°
2026-04-23 18:40 53.59367 7.66260 29971 ft 397 kts 77°
2026-04-23 18:40 53.59985 7.70760 29685 ft 392 kts 78°
2026-04-23 18:40 53.60595 7.75216 29407 ft 390 kts 78°
2026-04-23 18:40 53.61199 7.79645 29137 ft 388 kts 78°
2026-04-23 18:41 53.61802 7.84071 28863 ft 386 kts 77°
2026-04-23 18:41 53.62401 7.88463 28591 ft 384 kts 77°
2026-04-23 18:41 53.62997 7.92835 28323 ft 382 kts 76°
2026-04-23 18:41 53.63584 7.97132 28053 ft 381 kts 76°
2026-04-23 18:42 53.64176 8.01476 27797 ft 380 kts 77°
2026-04-23 18:42 53.64763 8.05812 27534 ft 379 kts 76°
2026-04-23 18:42 53.65345 8.10142 27275 ft 378 kts 77°
2026-04-23 18:42 53.65922 8.14437 27010 ft 377 kts 76°
2026-04-23 18:43 53.66500 8.18749 26760 ft 376 kts 76°
2026-04-23 18:43 53.67073 8.23046 26307 ft 376 kts 77°
2026-04-23 18:43 53.67652 8.27401 25692 ft 380 kts 76°
2026-04-23 18:43 53.68219 8.31699 25294 ft 372 kts 77°
2026-04-23 18:44 53.68777 8.35940 24539 ft 369 kts 75°
2026-04-23 18:44 53.69330 8.40153 23789 ft 366 kts 75°
2026-04-23 18:44 53.69874 8.44324 22998 ft 361 kts 74°
2026-04-23 18:44 53.70407 8.48428 22288 ft 355 kts 76°
2026-04-23 18:45 53.70929 8.52440 21728 ft 345 kts 76°
2026-04-23 18:45 53.71438 8.56356 21187 ft 340 kts 75°
2026-04-23 18:45 53.71942 8.60223 20652 ft 343 kts 75°
2026-04-23 18:45 53.72459 8.64173 20109 ft 346 kts 75°
2026-04-23 18:46 53.72971 8.68111 19764 ft 342 kts 76°
2026-04-23 18:46 53.73478 8.72062 19336 ft 342 kts 75°
2026-04-23 18:46 53.73973 8.75951 18921 ft 337 kts 75°
2026-04-23 18:46 53.74466 8.79806 18426 ft 334 kts 74°
2026-04-23 18:47 53.74956 8.83622 17909 ft 331 kts 73°
2026-04-23 18:47 53.75442 8.87408 17393 ft 328 kts 73°
2026-04-23 18:47 53.75925 8.91169 16832 ft 328 kts 73°
2026-04-23 18:47 53.76409 8.94952 16127 ft 331 kts 74°
2026-04-23 18:48 53.76890 8.98756 15389 ft 330 kts 74°
2026-04-23 18:48 53.77362 9.02537 14668 ft 328 kts 74°
2026-04-23 18:48 53.77825 9.06249 13954 ft 326 kts 74°
2026-04-23 18:48 53.78294 9.09996 13169 ft 324 kts 74°
2026-04-23 18:49 53.78761 9.13713 12397 ft 322 kts 73°
2026-04-23 18:49 53.79221 9.17400 11647 ft 319 kts 73°
2026-04-23 18:49 53.79676 9.21058 10908 ft 317 kts 73°
2026-04-23 18:49 53.80126 9.24689 10186 ft 314 kts 73°
2026-04-23 18:50 53.80427 9.27126 9653 ft 312 kts 73°
2026-04-23 18:50 53.81010 9.31869 8620 ft 308 kts 73°
2026-04-23 18:50 53.81444 9.35403 7865 ft 305 kts 73°
2026-04-23 18:50 53.81868 9.38875 7404 ft 293 kts 73°
2026-04-23 18:51 53.82265 9.42176 7274 ft 284 kts 72°
2026-04-23 18:51 53.82659 9.45430 7277 ft 282 kts 72°
2026-04-23 18:51 53.83054 9.48671 7267 ft 281 kts 72°
2026-04-23 18:51 53.83448 9.51914 7269 ft 281 kts 72°
2026-04-23 18:52 53.83840 9.55160 7268 ft 281 kts 72°
2026-04-23 18:52 53.84230 9.58401 7269 ft 281 kts 72°
2026-04-23 18:52 53.84618 9.61636 7266 ft 281 kts 72°
2026-04-23 18:52 53.85008 9.64879 7265 ft 281 kts 72°
2026-04-23 18:53 53.85396 9.68135 7262 ft 281 kts 72°
2026-04-23 18:53 53.85776 9.71339 7251 ft 278 kts 72°
2026-04-23 18:53 53.86141 9.74445 7252 ft 261 kts 72°
2026-04-23 18:53 53.86484 9.77386 7252 ft 251 kts 72°
2026-04-23 18:54 53.86686 9.80338 7257 ft 256 kts 85°
2026-04-23 18:54 53.86507 9.83362 7253 ft 259 kts 91°
2026-04-23 18:54 53.86292 9.86395 7252 ft 259 kts 91°
2026-04-23 18:54 53.86079 9.89428 7252 ft 259 kts 91°
2026-04-23 18:55 53.85864 9.92472 7065 ft 261 kts 91°
2026-04-23 18:55 53.85648 9.95507 6769 ft 258 kts 90°
2026-04-23 18:55 53.85435 9.98522 6444 ft 257 kts 90°
2026-04-23 18:55 53.85222 10.01518 6111 ft 256 kts 90°
2026-04-23 18:56 53.85076 10.03543 5890 ft 255 kts 91°
2026-04-23 18:56 53.84786 10.07483 5458 ft 253 kts 91°
2026-04-23 18:56 53.84570 10.10431 5129 ft 252 kts 91°
2026-04-23 18:56 53.84356 10.13367 4797 ft 251 kts 91°
2026-04-23 18:57 53.84177 10.16283 4495 ft 245 kts 83°
2026-04-23 18:57 53.84410 10.19071 4247 ft 235 kts 65°
2026-04-23 18:57 53.85090 10.21510 4058 ft 225 kts 48°
2026-04-23 18:57 53.86064 10.23559 4008 ft 223 kts 43°
2026-04-23 18:58 53.87063 10.25572 4011 ft 223 kts 43°
2026-04-23 18:58 53.88057 10.27588 4011 ft 223 kts 43°
2026-04-23 18:58 53.88920 10.29791 4004 ft 232 kts 64°
2026-04-23 18:58 53.89042 10.32574 3999 ft 247 kts 97°
2026-04-23 18:59 53.88272 10.35226 4001 ft 258 kts 128°
2026-04-23 18:59 53.86886 10.37162 3996 ft 261 kts 152°
2026-04-23 18:59 53.85169 10.38111 3993 ft 260 kts 176°
2026-04-23 18:59 53.83410 10.37941 3995 ft 256 kts 200°
2026-04-23 19:00 53.81823 10.36726 3995 ft 247 kts 223°
2026-04-23 19:00 53.80610 10.34718 4000 ft 239 kts 237°
2026-04-23 19:00 53.79557 10.32543 3988 ft 238 kts 238°
2026-04-23 19:00 53.78525 10.30414 3749 ft 236 kts 238°
2026-04-23 19:01 53.77475 10.28257 3630 ft 239 kts 237°
2026-04-23 19:01 53.76417 10.26090 3505 ft 239 kts 237°
2026-04-23 19:01 53.75361 10.23929 3377 ft 238 kts 238°
2026-04-23 19:01 53.74312 10.21785 3278 ft 233 kts 238°
2026-04-23 19:02 53.73621 10.20374 3143 ft 229 kts 238°
2026-04-23 19:02 53.72283 10.17638 2774 ft 227 kts 238°
2026-04-23 19:02 53.71280 10.15591 2471 ft 224 kts 238°
2026-04-23 19:02 53.70313 10.13624 2169 ft 212 kts 239°
2026-04-23 19:03 53.69402 10.11775 1923 ft 198 kts 239°
2026-04-23 19:03 53.68553 10.10047 1612 ft 184 kts 239°
2026-04-23 19:03 53.67750 10.08409 1384 ft 173 kts 238°
2026-04-23 19:03 53.67027 10.06945 1141 ft 154 kts 238°
2026-04-23 19:04 53.66373 10.05613 938 ft 143 kts 238°
2026-04-23 19:04 53.65757 10.04356 743 ft 136 kts 237°
2026-04-23 19:04 53.65160 10.03138 564 ft 134 kts 238°
2026-04-23 19:04 53.64565 10.01929 392 ft 131 kts 236°
2026-04-23 19:05 53.63985 10.00749 218 ft 132 kts 237°
2026-04-23 19:05 53.63400 9.99574 51 ft 127 kts 234°
2026-04-23 19:05 53.62928 9.98587 44 ft 86 kts 230°
2026-04-23 19:05 53.62630 9.97990 42 ft 56 kts 231°
2026-04-23 19:06 53.62465 9.97757 40 ft 9 kts 161°
2026-04-23 19:06 53.62434 9.97840 44 ft 14 kts 116°
2026-04-23 19:06 53.62434 9.97978 47 ft 10 kts 75°
2026-04-23 19:06 53.62459 9.98085 45 ft 9 kts 59°
2026-04-23 19:07 53.62498 9.98162 47 ft 9 kts 51°
2026-04-23 19:07 53.62568 9.98305 47 ft 18 kts 50°
2026-04-23 19:07 53.62644 9.98460 47 ft 16 kts 50°
2026-04-23 19:07 53.62714 9.98602 47 ft 15 kts 50°
2026-04-23 19:08 53.62779 9.98732 47 ft 14 kts 50°
2026-04-23 19:08 53.62838 9.98851 47 ft 13 kts 51°
2026-04-23 19:08 53.62890 9.98958 47 ft 11 kts 50°
2026-04-23 19:08 53.62939 9.99057 47 ft 10 kts 50°
2026-04-23 19:09 53.62982 9.99143 46 ft 9 kts 50°
2026-04-23 19:09 53.63021 9.99222 47 ft 8 kts 50°
2026-04-23 19:09 53.63055 9.99293 47 ft 7 kts 55°
2026-04-23 19:09 53.63080 9.99355 47 ft 6 kts 54°
2026-04-23 19:10 53.63084 9.99365 47 ft 0 kts 55°
2026-04-23 19:10 53.63089 9.99377 47 ft 7 kts 55°
2026-04-23 19:11 53.63147 9.99515 46 ft 16 kts 53°
2026-04-23 19:11 53.63203 9.99635 48 ft 8 kts 51°
2026-04-23 19:11 53.63227 9.99684 48 ft 4 kts 51°
2026-04-23 19:11 53.63238 9.99722 48 ft 3 kts 82°
2026-04-23 19:12 53.63212 9.99770 48 ft 15 kts 150°
2026-04-23 19:12 53.63086 9.99881 48 ft 14 kts 153°
2026-04-23 19:12 53.63001 9.99954 48 ft 13 kts 153°
2026-04-23 19:12 53.62952 10.00040 48 ft 9 kts 84°
2026-04-23 19:13 53.62995 10.00106 48 ft 8 kts 33°
2026-04-23 19:13 53.63035 10.00158 48 ft 7 kts 60°
2026-04-23 19:13 53.63023 10.00221 47 ft 8 kts 116°
2026-04-23 19:13 53.63002 10.00312 47 ft 8 kts 111°
2026-04-23 19:14 53.62991 10.00363 48 ft 0 kts 110°